Regional Weather Roundup
Issued by NWS Cleveland, OH

Home | Current Version | Previous Version | Graphics & Text | Print | Product List | Glossary On
Versions: 1 2 3 4 5 6 7 8 9 10 11 12 13 14 15 16 17 18 19 20 21 22 23 24 25 26 27 28 29 30 31 32 33 34 35 36 37 38 39 40 41 42 43 44 45 46 47 48 49 50
543
ASUS41 KCLE 260610
RWRCLE
OHIO REGIONAL WEATHER ROUNDUP
NATIONAL WEATHER SERVICE WILMINGTON, OH
200 AM EDT MON SEP 26 2016

NOTE: "FAIR" INDICATES FEW OR NO CLOUDS BELOW 12,000 FEET WITH NO
SIGNIFICANT WEATHER AND/OR OBSTRUCTIONS TO VISIBILITY.

OHZ001>008-015>018-024>027-034-035-043-044-260700-
   NORTHWEST OHIO

CITY           SKY/WX    TMP DP  RH WIND       PRES   REMARKS
DEFIANCE       TSTM      66  62  87 CALM      29.96F
FINDLAY        MOCLDY    71  50  47 S14       29.96F
TOLEDO EXPRESS CLOUDY    64  56  75 S5        29.94F
TOLEDO EXEC    CLOUDY    66  54  65 S7        29.96F
LIMA           FAIR      69  56  62 S10       29.97F
$$

OHZ009>014-019>023-028>033-038-089-260700-
   NORTHEAST OHIO

CITY           SKY/WX    TMP DP  RH WIND       PRES   REMARKS
CLE-HOPKINS    MOCLDY    63  46  54 S10       30.03F
CLE-LAKEFRONT  FAIR      64  46  52 SE14      30.00F
CUY CO. ARPT   NOT AVBL
LORAIN-ELYRIA  FAIR      56  47  71 S7        30.01F
ASHTABULA      FAIR      53  48  83 S5        30.06S
AKRON-CANTON   FAIR      60  46  59 SE7       30.05F
WOOSTER        FAIR      53  49  86 CALM      30.04F
MANSFIELD      FAIR      64  47  53 S9        30.03F
YOUNGSTOWN     FAIR      57  46  66 SE9       30.05F
$$

OHZ042-051>053-060>062-070>072-077>081-260700-
  SOUTHWEST OHIO

CITY           SKY/WX    TMP DP  RH WIND       PRES   REMARKS
CINC-COVINGTON FAIR      70  64  81 S6        30.00F
CINC-LUNKEN    FOG       64  64 100 CALM      30.00F VSB 1/4
HAMILTON       FAIR      64  62  93 CALM      30.00F FOG
DAYTON         FAIR      67  62  84 S7        30.01F
WRIGHT-PAT AFB CLEAR     68  60  77 SE5       30.00F
DAYTON GENERAL FAIR      69  62  78 S6        30.00F
WILMINGTON     FAIR      67  62  84 SE5       30.01F
$$

OHZ036-037-039>041-045>050-054>059-063>069-073>076-082>088-260700-
  CENTRAL AND SOUTHEAST OHIO

CITY           SKY/WX    TMP DP  RH WIND       PRES   REMARKS
COLUMBUS       FAIR      63  55  75 CALM      30.01F
OSU AIRPORT    FAIR      65  50  58 SE3       30.02F
BOLTON FIELD   FAIR      62  52  69 CALM      30.03S
RICKENBACK AFB FAIR      62  52  70 CALM      30.01F
NEWARK         FAIR      56  53  90 CALM      30.02F
MARION         FAIR      63  48  58 S9        30.01F
LANCASTER      FAIR      56  54  93 CALM      30.02F
ZANESVILLE     FAIR      57  51  80 CALM      30.03F
NEW PHILLY     FAIR      56  52  86 CALM      30.05F
$$




USA.gov is the U.S. government's official web portal to all federal, state and local government web resources and services.